GW1663 Weather Reports


time (UTC)temp
F
wind
direction
speed
knots
gust
knots
rain 1hr
in
rain 24hr
in
rain mn
in
humidity
%
barometer
mb
20260502190044 87 171 2.6 7.8 0.00 0.00 0.00 23 1016.9
20260502185538 88 254 2.6 8.7 0.00 0.00 0.00 22 1017.0
20260502185036 89 132 2.6 7.0 0.00 0.00 0.00 23 1017.2
20260502184532 87 134 9.6 12.2 0.00 0.00 0.00 24 1017.2
20260502184028 86 333 0.0 7.8 0.00 0.00 0.00 23 1017.1
20260502183524 88 104 1.7 11.3 0.00 0.00 0.00 23 1017.6
20260502183021 88 148 7.0 7.8 0.00 0.00 0.00 23 1017.5
20260502182515 87 119 3.5 9.6 0.00 0.00 0.00 24 1017.6
20260502182012 87 136 1.7 10.4 0.00 0.00 0.00 23 1018.0
20260502181510 87 240 4.3 11.3 0.00 0.00 0.00 22 1017.8
20260502181009 87 143 3.5 19.1 0.00 0.00 0.00 23 1017.8
20260502180505 86 175 4.3 12.2 0.00 0.00 0.00 24 1017.8
20260502170424 85 144 4.3 10.4 0.00 0.00 0.00 23 1018.2
20260502163907 84 133 3.5 9.6 0.00 0.00 0.00 22 1018.3
20260502163403 84 126 1.7 10.4 0.00 0.00 0.00 22 1018.2
20260502162901 84 66 2.6 12.2 0.00 0.00 0.00 21 1018.4
20260502162357 84 103 1.7 6.1 0.00 0.00 0.00 21 1018.1
20260502161854 83 99 3.5 8.7 0.00 0.00 0.00 20 1018.3
20260502161345 83 129 2.6 6.1 0.00 0.00 0.00 20 1018.2
20260502160843 83 131 7.8 10.4 0.00 0.00 0.00 20 1018.1
20260502160342 83 104 0.0 8.7 0.00 0.00 0.00 21 1018.3
20260502152317 81 127 1.7 6.1 0.00 0.00 0.00 21 1017.9
20260502151814 80 95 6.1 7.8 0.00 0.00 0.00 21 1017.7
20260502151311 79 156 0.9 7.8 0.00 0.00 0.00 22 1017.7
20260502150809 79 119 3.5 6.1 0.00 0.00 0.00 22 1017.8
20260502150305 79 47 1.7 5.2 0.00 0.00 0.00 23 1017.6
20260502130653 68 87 0.9 2.6 0.00 0.00 0.00 29 1016.4
20260502130151 67 358 0.9 2.6 0.00 0.00 0.00 29 1016.2
20260502123636 69 147 0.0 1.7 0.00 0.00 0.00 26 1016.0
20260502123133 69 49 0.9 1.7 0.00 0.00 0.00 26 1015.8
20260502122630 70 126 1.7 2.6 0.00 0.00 0.00 25 1015.7
20260502122126 70 104 0.0 2.6 0.00 0.00 0.00 26 1015.8
20260502121624 70 79 1.7 4.3 0.00 0.00 0.00 26 1015.7
20260502121121 70 141 0.9 1.7 0.00 0.00 0.00 26 1015.5
20260502120618 71 91 0.9 2.6 0.00 0.00 0.00 24 1015.7
20260502120115 71 313 1.7 4.3 0.00 0.00 0.00 24 1015.6
20260502115613 71 100 0.9 3.5 0.00 0.00 0.00 24 1015.7
20260502115108 71 50 0.0 2.6 0.00 0.00 0.00 24 1015.6
20260502114604 71 107 0.0 2.6 0.00 0.00 0.00 24 1015.5
20260502114102 72 140 0.0 5.2 0.00 0.00 0.00 23 1015.7
20260502113559 73 97 1.7 6.1 0.00 0.00 0.00 22 1015.5
20260502113057 73 80 2.6 5.2 0.00 0.00 0.00 22 1015.4
20260502112555 73 67 1.7 7.0 0.00 0.00 0.00 22 1015.3
20260502112053 73 85 1.7 5.2 0.00 0.00 0.00 23 1015.4
20260502111549 72 130 0.0 6.1 0.00 0.00 0.00 23 1015.5
20260502111047 73 81 1.7 4.3 0.00 0.00 0.00 23 1015.5
20260502110544 72 85 2.6 3.5 0.00 0.00 0.00 24 1015.3
20260502110042 72 79 1.7 2.6 0.00 0.00 0.00 23 1015.3
20260502105539 73 42 0.0 5.2 0.00 0.00 0.00 23 1015.5
20260502105037 73 83 4.3 6.1 0.00 0.00 0.00 23 1015.5
20260502104533 73 78 4.3 6.1 0.00 0.00 0.00 23 1015.6
20260502104031 72 118 1.7 5.2 0.00 0.00 0.00 24 1015.4
20260502103529 72 45 0.0 3.5 0.00 0.00 0.00 24 1015.4
20260502103026 73 260 0.0 3.5 0.00 0.00 0.00 24 1015.3
20260502102522 72 340 0.0 5.2 0.00 0.00 0.00 24 1015.4
20260502102020 73 330 0.0 2.6 0.00 0.00 0.00 24 1015.2
20260502101517 73 19 0.9 2.6 0.00 0.00 0.00 23 1015.2
20260502101016 73 221 0.0 3.5 0.00 0.00 0.00 23 1015.3
20260502100514 74 102 3.5 6.1 0.00 0.00 0.00 22 1015.2
20260502091448 76 92 3.5 7.0 0.00 0.00 0.00 22 1014.8
20260502090946 77 86 2.6 11.3 0.00 0.00 0.00 22 1014.9
20260502090442 76 106 3.5 12.2 0.00 0.00 0.00 22 1014.6
20260502071337 75 5 1.7 4.3 0.00 0.00 0.00 20 1014.5
20260502070835 76 332 4.3 9.6 0.00 0.00 0.00 19 1014.4
20260502070332 76 350 1.7 5.2 0.00 0.00 0.00 19 1014.2
20260502065831 76 345 2.6 6.1 0.00 0.00 0.00 18 1014.1
20260502065329 77 359 1.7 5.2 0.00 0.00 0.00 17 1014.0
20260502064827 77 337 4.3 6.1 0.00 0.00 0.00 18 1014.1
20260502064325 77 36 1.7 7.0 0.00 0.00 0.00 17 1014.3
20260502063821 78 338 2.6 7.0 0.00 0.00 0.00 16 1014.0
20260502063320 78 333 6.1 11.3 0.00 0.00 0.00 15 1013.9
20260502062816 78 331 4.3 8.7 0.00 0.00 0.00 15 1014.0
20260502062314 78 337 4.3 13.0 0.00 0.00 0.00 15 1014.0
20260502061812 79 294 7.8 11.3 0.00 0.00 0.00 15 1013.9
20260502061310 79 334 5.2 8.7 0.00 0.00 0.00 15 1013.6
20260502060805 80 299 2.6 10.4 0.00 0.00 0.00 15 1013.6
20260502060301 80 333 4.3 7.0 0.00 0.00 0.00 15 1013.5
20260502055759 80 269 2.6 8.7 0.00 0.00 0.00 16 1013.6
20260502055256 79 314 2.6 4.3 0.00 0.00 0.00 17 1013.5
20260502054755 80 295 1.7 5.2 0.00 0.00 0.00 17 1013.5
20260502054253 79 260 0.0 3.5 0.00 0.00 0.00 17 1013.6
20260502053750 80 230 0.0 4.3 0.00 0.00 0.00 18 1013.5
20260502053247 80 297 2.6 3.5 0.00 0.00 0.00 17 1013.5
20260502052745 82 278 2.6 4.3 0.00 0.00 0.00 16 1013.2
20260502052243 82 231 2.6 9.6 0.00 0.00 0.00 16 1013.3
20260502051740 83 246 3.5 11.3 0.00 0.00 0.00 17 1013.4
20260502051239 83 246 4.3 11.3 0.00 0.00 0.00 17 1013.4
20260502050735 80 328 1.7 5.2 0.00 0.00 0.00 20 1013.5
20260502050231 80 265 3.5 6.1 0.00 0.00 0.00 21 1013.3
20260502045728 80 255 0.9 4.3 0.00 0.00 0.00 21 1013.3
20260502045225 80 254 0.0 3.5 0.00 0.00 0.00 21 1013.3
20260502044722 80 264 0.0 4.3 0.00 0.00 0.00 21 1013.2
20260502044218 79 261 1.7 3.5 0.00 0.00 0.00 21 1013.3
20260502043716 80 257 1.7 1.7 0.00 0.00 0.00 22 1013.2
20260502043213 80 254 0.0 5.2 0.00 0.00 0.00 21 1013.1
20260502042712 80 228 1.7 5.2 0.00 0.00 0.00 22 1013.3
20260502042210 79 246 0.0 2.6 0.00 0.00 0.00 22 1013.1
20260502041708 79 235 0.0 2.6 0.00 0.00 0.00 22 1013.1
20260502041204 80 291 2.6 3.5 0.00 0.00 0.00 21 1013.2
20260502040701 80 266 0.9 1.7 0.00 0.00 0.00 22 1013.1
20260502040158 81 224 1.7 3.5 0.00 0.00 0.00 21 1012.9
20260502035654 82 205 0.0 4.3 0.00 0.00 0.00 20 1012.8
20260502035151 82 235 1.7 4.3 0.00 0.00 0.00 21 1012.7
20260502034649 82 224 3.5 4.3 0.00 0.00 0.00 20 1012.9
20260502034147 82 225 2.6 3.5 0.00 0.00 0.00 20 1012.7
20260502033645 82 230 1.7 4.3 0.00 0.00 0.00 20 1012.7
20260502033143 83 238 2.6 6.1 0.00 0.00 0.00 20 1012.5
20260502032639 83 219 2.6 6.1 0.00 0.00 0.00 19 1012.6
20260502032135 84 227 2.6 7.0 0.00 0.00 0.00 19 1012.6
20260502031633 84 225 2.6 7.0 0.00 0.00 0.00 19 1012.5
20260502031130 84 223 3.5 6.1 0.00 0.00 0.00 19 1012.4
20260502030629 84 229 5.2 7.8 0.00 0.00 0.00 19 1012.3
20260502030127 84 241 2.6 7.0 0.00 0.00 0.00 19 1012.4
20260502025624 84 225 5.2 8.7 0.00 0.00 0.00 19 1012.2
20260502025122 84 223 3.5 4.3 0.00 0.00 0.00 19 1012.2
20260502024619 85 230 4.3 7.8 0.00 0.00 0.00 19 1012.3
20260502024117 85 238 3.5 6.1 0.00 0.00 0.00 19 1012.1
20260502023615 85 220 2.6 5.2 0.00 0.00 0.00 18 1012.1
20260502023112 85 213 3.5 7.8 0.00 0.00 0.00 18 1012.0
20260502022609 86 228 7.0 8.7 0.00 0.00 0.00 18 1011.7
20260502022106 86 162 0.0 7.0 0.00 0.00 0.00 18 1011.7
20260502021603 86 210 4.3 8.7 0.00 0.00 0.00 17 1011.7
20260502021100 86 196 1.7 6.1 0.00 0.00 0.00 17 1011.5
20260502020557 86 182 3.5 9.6 0.00 0.00 0.00 17 1011.7
20260502020054 87 180 0.9 4.3 0.00 0.00 0.00 18 1011.4
20260502015552 87 182 2.6 7.0 0.00 0.00 0.00 18 1011.4
20260502015048 87 225 2.6 9.6 0.00 0.00 0.00 16 1011.4
20260502014545 88 209 4.3 7.0 0.00 0.00 0.00 17 1011.7
20260502014043 88 216 3.5 7.0 0.00 0.00 0.00 17 1011.4
20260502013538 88 224 1.7 7.0 0.00 0.00 0.00 16 1011.5
20260502013034 88 223 4.3 9.6 0.00 0.00 0.00 16 1011.4
20260502012532 89 198 0.9 4.3 0.00 0.00 0.00 17 1011.5
20260502012029 89 202 4.3 7.8 0.00 0.00 0.00 17 1011.5
20260502011526 89 168 2.6 5.2 0.00 0.00 0.00 17 1011.4
20260502011022 90 232 3.5 5.2 0.00 0.00 0.00 15 1011.1
20260502010520 90 227 5.2 6.1 0.00 0.00 0.00 15 1011.4
20260502010016 89 160 1.7 4.3 0.00 0.00 0.00 15 1011.6
20260502005514 89 138 1.7 5.2 0.00 0.00 0.00 17 1011.6
20260502005012 89 166 1.7 5.2 0.00 0.00 0.00 15 1011.5
20260502004507 91 206 2.6 6.1 0.00 0.00 0.00 15 1011.5
20260502004004 91 237 2.6 7.0 0.00 0.00 0.00 15 1011.6
20260502003502 89 298 0.0 2.6 0.00 0.00 0.00 16 1011.6
20260502002957 90 275 1.7 4.3 0.00 0.00 0.00 15 1011.7
20260502002455 90 312 1.7 7.0 0.00 0.00 0.00 16 1011.7
20260502001952 91 289 2.6 7.8 0.00 0.00 0.00 16 1011.8
20260502001449 92 328 3.5 5.2 0.00 0.00 0.00 15 1011.7
20260502000948 91 316 2.6 7.8 0.00 0.00 0.00 17 1011.6
20260502000447 91 249 2.6 8.7 0.00 0.00 0.00 17 1011.8
20260501235941 89 203 5.2 10.4 0.00 0.00 0.00 19 1011.8
20260501235437 90 130 5.2 6.1 0.00 0.00 0.00 19 1011.8
20260501234932 89 145 1.7 6.1 0.00 0.00 0.00 19 1011.7
20260501234429 90 204 3.5 7.8 0.00 0.00 0.00 19 1012.1
20260501233928 91 236 2.6 5.2 0.00 0.00 0.00 19 1011.8
20260501233425 89 238 5.2 13.0 0.00 0.00 0.00 20 1011.8
20260501232920 91 159 0.0 4.3 0.00 0.00 0.00 19 1012.1
20260501232418 91 233 3.5 5.2 0.00 0.00 0.00 18 1012.0
20260501231915 90 253 1.7 11.3 0.00 0.00 0.00 20 1011.7
20260501231414 89 162 3.5 6.1 0.00 0.00 0.00 20 1012.1
20260501230912 90 238 1.7 4.3 0.00 0.00 0.00 20 1012.1
20260501230410 90 252 2.6 9.6 0.00 0.00 0.00 20 1012.1
20260501225907 89 217 4.3 10.4 0.00 0.00 0.00 21 1012.2
20260501225404 89 224 4.3 9.6 0.00 0.00 0.00 21 1012.2
20260501224900 89 121 0.0 5.2 0.00 0.00 0.00 21 1012.3
20260501224358 89 217 3.5 6.1 0.00 0.00 0.00 21 1012.3
20260501223854 89 226 6.1 9.6 0.00 0.00 0.00 21 1012.5
20260501223350 88 235 4.3 7.8 0.00 0.00 0.00 21 1012.5
20260501222846 90 257 2.6 14.8 0.00 0.00 0.00 21 1012.4
20260501222344 91 262 4.3 8.7 0.00 0.00 0.00 21 1012.5
20260501221840 90 184 0.0 3.5 0.00 0.00 0.00 21 1012.7
20260501221338 91 254 3.5 5.2 0.00 0.00 0.00 21 1012.7
20260501220836 88 245 2.6 6.1 0.00 0.00 0.00 22 1012.9
20260501220333 90 230 3.5 9.6 0.00 0.00 0.00 21 1012.8
20260501215829 91 339 2.6 5.2 0.00 0.00 0.00 21 1012.9
20260501215326 89 336 2.6 6.1 0.00 0.00 0.00 21 1013.0
20260501214821 89 319 3.5 6.1 0.00 0.00 0.00 21 1013.3
20260501214317 88 297 1.7 3.5 0.00 0.00 0.00 22 1013.6
20260501213813 87 220 3.5 7.0 0.00 0.00 0.00 22 1013.4
20260501213309 89 349 5.2 7.8 0.00 0.00 0.00 21 1013.7
20260501212805 86 139 3.5 4.3 0.00 0.00 0.00 22 1013.4
20260501212305 87 238 3.5 6.1 0.00 0.00 0.00 22 1013.5
20260501211759 88 269 2.6 7.0 0.00 0.00 0.00 21 1013.7
20260501211256 87 198 0.9 13.0 0.00 0.00 0.00 22 1013.7
20260501210753 87 224 4.3 11.3 0.00 0.00 0.00 22 1013.8
20260501210250 87 211 2.6 5.2 0.00 0.00 0.00 22 1014.0
20260501205746 85 135 3.5 4.3 0.00 0.00 0.00 22 1013.9
20260501205243 86 143 0.9 5.2 0.00 0.00 0.00 22 1014.0
20260501204740 86 139 3.5 6.1 0.00 0.00 0.00 21 1014.1
20260501204237 86 183 2.6 7.0 0.00 0.00 0.00 21 1014.4
20260501203733 87 84 0.0 7.8 0.00 0.00 0.00 21 1014.1
20260501203231 86 239 4.3 5.2 0.00 0.00 0.00 21 1014.2
20260501202727 86 223 1.7 5.2 0.00 0.00 0.00 21 1014.4
20260501202224 84 149 2.6 5.2 0.00 0.00 0.00 22 1014.6
20260501201721 85 230 6.1 9.6 0.00 0.00 0.00 22 1014.6
20260501201218 85 245 4.3 7.0 0.00 0.00 0.00 22 1014.4
20260501200715 84 238 1.7 3.5 0.00 0.00 0.00 22 1014.5
20260501200212 84 273 4.3 6.1 0.00 0.00 0.00 23 1014.5
20260501195709 84 264 2.6 4.3 0.00 0.00 0.00 22 1014.6
20260501195205 83 230 4.3 9.6 0.00 0.00 0.00 24 1014.9
20260501194701 84 250 1.7 7.0 0.00 0.00 0.00 23 1014.8
20260501194156 83 258 3.5 9.6 0.00 0.00 0.00 23 1015.0
20260501193653 83 226 1.7 7.8 0.00 0.00 0.00 24 1014.9
20260501193152 82 148 0.9 4.3 0.00 0.00 0.00 25 1015.0
20260501192649 83 151 2.6 7.0 0.00 0.00 0.00 24 1015.2
20260501192147 83 310 3.5 5.2 0.00 0.00 0.00 25 1015.3
20260501191644 82 231 9.6 13.9 0.00 0.00 0.00 25 1015.2
20260501191141 81 227 5.2 10.4 0.00 0.00 0.00 26 1015.3
20260501190637 82 138 0.9 6.1 0.00 0.00 0.00 27 1015.4